GFSFLT2_prec_cloud_336.txt.gz
Cloud_Cover
0 0 1 17 100 9 38 20 89 67 34 20 24 5 3 0 4 0 0 0 0 0 2 5 1 2 83 67 48 92 100 100
0 0 0 4 70 39 83 70 75 100 40 72 8 15 5 0 0 0 0 0 0 0 0 4 0 31 100 65 96 94 100 100
0 0 0 0 5 4 35 89 100 100 100 6 39 6 5 0 0 0 0 0 0 5 5 0 0 100 100 100 100 100 100 100
0 0 0 0 5 74 96 99 53 5 84 62 100 74 0 0 0 0 0 0 0 1 5 3 13 100 100 100 100 100 100 100
0 0 0 0 1 42 99 45 68 55 100 8 100 100 5 0 0 0 0 0 0 0 0 0 4 95 100 94 99 100 100 100
0 0 0 0 3 6 95 84 94 45 56 99 65 57 17 0 0 0 0 0 0 0 0 0 4 43 58 76 66 83 100 100
0 0 0 0 0 8 71 89 57 100 100 98 100 5 3 0 0 0 0 0 0 0 0 0 4 18 100 100 100 79 78 98
0 0 0 0 0 1 81 48 5 89 61 96 100 5 2 0 0 0 0 0 0 0 0 0 3 7 100 100 100 100 94 92
0 0 0 0 0 0 2 2 4 100 91 100 90 5 24 3 0 0 0 0 0 0 0 0 0 0 5 100 81 100 100 93
0 0 0 0 0 0 0 0 5 100 55 70 22 53 35 5 0 0 0 0 0 0 0 0 0 0 0 23 50 98 100 100
0 0 0 0 0 0 0 4 2 70 57 98 22 70 65 1 0 0 0 0 0 0 0 0 0 0 0 1 5 52 100 82
0 0 0 0 0 0 0 2 3 80 1 5 88 100 90 4 0 0 0 0 0 0 0 0 0 0 0 0 0 2 18 100
0 0 0 0 0 0 0 9 4 63 4 3 100 100 76 11 2 2 0 0 0 0 0 0 0 0 0 0 0 1 54 92
0 0 0 0 0 0 0 0 5 3 2 18 100 92 81 100 11 5 0 0 0 0 0 0 0 0 0 0 0 14 85 100
0 0 0 0 0 0 0 0 0 0 4 100 100 100 100 89 100 10 3 0 0 0 0 0 0 0 0 0 0 60 97 100
0 0 0 0 0 0 0 0 0 0 3 100 100 100 89 100 100 38 5 2 0 0 0 0 0 0 0 0 3 26 33 84
0 0 0 0 0 0 0 0 0 0 0 91 100 100 100 100 100 73 5 1 1 0 0 3 0 0 0 0 0 0 16 38
0 0 0 0 0 0 0 0 0 0 0 4 100 100 100 100 85 88 66 12 0 3 0 0 0 0 0 0 0 0 0 3
0 0 0 0 0 0 0 0 0 0 0 0 94 100 100 100 96 86 99 87 1 0 0 2 3 2 0 0 0 0 0 0

GFSFLT2_prec_cloud_339.txt.gz
Cloud_Cover
5 5 34 84 34 88 100 80 96 100 100 9 20 0 5 5 5 15 100 98 25 60 13 1 0 0 0 4 5 98 5 17
25 27 78 21 70 34 68 11 55 100 100 96 97 9 4 5 10 68 96 9 94 26 24 5 0 0 0 5 5 93 100 88
31 4 5 5 0 18 96 86 76 100 48 100 100 27 4 85 5 12 66 8 38 7 12 0 0 0 0 5 21 100 100 100
0 4 3 0 86 2 99 84 41 100 100 100 14 5 17 96 5 5 5 5 7 0 0 0 0 0 5 100 100 99 95 100
0 3 5 1 0 6 78 58 100 100 100 42 41 0 5 33 5 1 3 5 5 0 0 0 1 0 5 88 100 100 100 100
0 17 60 9 0 0 5 94 100 100 99 100 59 0 35 18 1 0 0 0 0 0 0 0 1 1 23 62 100 100 100 100
0 5 84 52 4 0 5 98 100 100 81 98 90 54 6 43 0 0 0 0 0 0 0 0 0 0 7 69 100 100 100 100
0 0 0 0 4 5 5 82 99 43 96 100 44 99 20 34 2 0 0 0 0 0 0 0 0 2 86 12 90 100 100 100
0 0 0 0 0 0 4 68 100 99 88 48 94 100 100 96 5 0 0 0 0 0 0 0 0 0 70 90 100 100 100 100
0 0 0 0 0 0 0 0 40 100 100 100 100 95 100 71 4 0 0 0 0 0 0 0 0 4 5 100 100 100 99 100
0 0 1 5 0 0 0 0 0 25 88 19 58 98 100 6 6 1 0 0 0 0 0 0 0 5 5 44 100 86 100 100
0 1 1 4 4 5 0 0 0 0 5 5 100 100 100 9 25 3 0 0 0 0 0 0 0 0 5 45 97 100 100 54
0 0 0 1 7 2 0 0 0 0 0 5 100 100 93 100 99 4 0 0 0 0 0 0 0 0 0 0 3 1 66 100
0 0 0 0 1 0 3 0 0 0 0 23 100 100 100 100 97 8 0 4 0 0 0 0 0 0 0 0 0 0 4 91
0 0 0 0 3 0 0 0 0 0 0 3 100 100 100 100 100 100 22 4 2 0 0 0 0 0 0 0 0 0 77 93
0 0 0 1 0 0 0 0 0 0 0 0 100 100 100 100 100 100 84 3 0 0 0 0 0 0 0 0 0 43 81 100
0 0 0 1 0 0 0 0 0 0 0 0 100 100 97 100 100 99 100 45 0 0 0 0 0 0 0 0 0 10 44 100
4 0 0 2 5 0 0 0 0 0 0 0 51 100 8 100 100 100 100 94 4 0 0 0 1 0 0 0 0 0 1 30
0 0 0 0 4 24 0 0 0 0 0 0 0 21 1 100 100 100 100 100 83 36 0 0 0 0 1 0 0 0 0 0

GFSFLT2_prec_cloud_342.txt.gz
Cloud_Cover
1 16 0 3 99 94 62 1 98 100 100 100 100 100 37 100 96 13 4 74 39 2 12 8 0 0 0 0 6 3 6 5
83 72 97 3 24 73 94 17 38 100 100 100 100 100 100 82 6 9 0 0 69 4 0 0 0 0 0 0 0 4 45 5
91 100 20 12 52 39 83 37 14 100 100 100 100 100 100 56 5 7 1 0 0 74 0 0 0 0 1 0 4 7 8 55
41 100 78 0 34 41 29 2 85 71 100 100 100 99 67 62 62 85 80 17 36 96 2 0 1 6 0 5 5 63 91 21
5 5 0 1 2 0 26 99 5 68 53 100 100 100 70 7 2 100 93 7 7 100 2 0 0 4 58 55 88 92 100 100
0 0 34 10 4 0 0 5 85 17 99 100 100 100 81 100 87 5 20 1 15 53 0 0 0 6 100 100 100 100 100 100
0 0 17 97 63 41 0 0 0 72 100 100 100 90 96 30 5 5 5 0 5 0 0 0 0 4 100 100 99 100 100 100
0 0 0 5 95 100 16 0 0 100 100 100 100 100 63 4 39 3 5 0 9 0 0 0 0 0 5 99 100 100 100 100
0 0 0 0 0 19 3 100 0 86 100 100 100 100 33 0 5 4 5 0 0 0 0 0 0 0 5 57 100 100 100 100
0 0 0 0 0 0 0 10 26 99 55 100 90 55 4 41 22 45 94 0 0 0 0 0 0 0 7 45 70 94 100 100
5 0 2 4 3 4 4 0 0 5 2 15 70 27 2 95 77 97 86 0 0 0 0 0 0 0 5 6 20 100 100 100
5 5 8 5 100 76 50 6 4 0 0 15 100 45 5 98 96 100 86 0 0 0 0 0 0 0 4 100 100 100 100 98
0 2 4 27 87 99 98 62 12 13 0 61 94 44 5 20 65 99 70 0 0 0 0 0 0 0 4 100 100 90 100 100
0 0 0 2 88 100 45 4 0 0 0 0 0 0 0 39 24 42 100 17 0 0 0 0 0 0 0 7 99 100 97 85
3 0 0 0 0 24 5 0 0 0 0 0 0 0 13 18 52 100 100 100 2 0 0 0 0 0 0 0 3 46 100 100
76 6 78 8 0 0 0 0 0 0 0 0 0 0 56 72 100 100 100 88 29 1 0 0 0 0 0 0 0 3 43 60
1 3 24 63 0 0 0 0 0 0 0 0 0 0 22 100 84 98 86 100 90 79 0 0 0 0 0 0 0 32 81 90
0 5 2 0 4 0 0 0 0 0 0 0 0 0 0 80 100 100 100 100 100 99 30 0 0 0 0 0 0 37 97 94
0 4 0 0 6 12 1 0 0 0 0 0 0 0 0 24 66 100 100 100 57 96 78 0 0 0 0 0 0 8 9 54

GFSFLT2_prec_cloud_345.txt.gz
Cloud_Cover
90 92 78 43 99 45 44 91 100 10 100 100 100 100 100 100 90 100 70 14 19 9 98 0 0 0 0 0 0 0 3 4
83 93 18 42 100 8 59 60 91 56 100 100 100 100 96 86 86 13 5 0 2 0 0 1 1 0 0 0 0 3 4 3
92 50 100 62 77 22 4 13 5 42 83 100 100 100 100 99 99 6 0 0 0 0 3 0 0 0 1 0 0 5 30 4
0 47 95 100 70 89 62 54 91 87 100 100 47 100 100 100 100 98 8 4 20 0 0 0 0 0 2 0 0 5 5 7
0 1 44 72 84 5 0 100 25 74 100 100 30 97 99 100 100 89 100 90 18 0 54 0 0 0 0 0 7 85 8 5
0 0 7 97 97 0 0 2 1 5 27 94 2 100 100 100 97 31 86 24 10 21 4 0 0 1 13 77 100 100 92 70
0 0 0 0 4 83 57 0 52 0 0 5 95 100 100 57 100 67 5 4 0 0 0 0 28 99 100 100 100 100 99 48
0 0 0 0 0 16 90 79 66 3 0 2 55 100 100 100 88 5 5 2 0 0 0 0 26 100 100 100 100 100 94 98
0 0 0 0 0 1 47 86 95 29 3 97 100 100 100 100 84 16 0 0 0 1 0 0 0 79 100 100 100 87 100 100
0 0 0 0 0 0 4 5 100 80 25 58 100 100 100 100 100 93 39 3 4 16 0 0 0 5 87 100 100 100 100 100
0 0 0 0 0 0 0 0 4 22 33 100 82 52 100 100 100 100 100 78 4 0 0 0 0 0 0 100 99 100 100 100
0 0 0 0 0 62 50 36 8 5 41 94 100 68 89 23 100 100 100 30 5 0 0 0 0 0 0 64 98 100 93 100
0 0 0 0 41 40 20 100 0 1 0 4 87 50 1 60 98 100 82 83 91 0 0 0 0 0 0 3 13 100 35 100
0 0 0 0 5 5 75 8 4 10 0 0 0 62 63 100 100 68 56 100 93 5 0 0 0 0 0 1 22 67 63 85
0 0 0 0 0 5 1 1 0 0 0 0 0 0 100 93 36 99 100 100 83 99 6 0 0 0 0 0 54 100 96 100
4 4 6 0 0 2 0 0 0 0 0 0 0 1 100 79 97 12 16 100 93 100 100 62 0 0 0 0 8 100 69 100
26 100 56 16 0 1 1 0 0 0 0 0 0 0 94 62 1 1 46 100 100 100 100 100 2 0 0 0 1 52 42 98
94 67 50 20 5 0 0 0 0 0 0 0 0 0 0 0 0 1 100 100 100 100 100 100 64 0 0 0 0 42 78 100
5 14 5 7 4 2 1 0 0 0 0 0 0 0 0 0 0 2 93 100 100 100 100 100 100 0 0 0 0 30 37 58